Marshfield, WI

2:09 PM CDT on June 25, 2017 (GMT -0500)
Marshfield Municipal

Weather History for KMFI - February, 2012

Change the Weather History Date:

Wednesday, February 8, 2012

  Actual Average Record
Temperature  
Mean Temperature 18 °F -  
Max Temperature 28 °F 24 °F 50 °F (1991)
Min Temperature 8 °F 3 °F -27 °F (1971)
Degree Days  
Heating Degree Days 47    
Moisture  
Dew Point 4 °F    
Average Humidity 54    
Maximum Humidity 81    
Minimum Humidity 31    
Precipitation  
Precipitation 0.00 in - - ()
Sea Level Pressure  
Sea Level Pressure 30.36 in    
Wind  
Wind Speed 7 mph (West)    
Max Wind Speed 13 mph    
Max Gust Speed -    
Visibility 10 miles    
Events      
Averages and records for this station are not official NWS values.
T = Trace of Precipitation, MM = Missing Value Source: NWS Daily Summary

Daily Weather History Graph

Daily Weather History Graph

Search for Another Location

Airport or City:

Trip Planner

Search our weather history database for the weather conditions in past years. The results will help you decide how hot, cold, wet, or windy it might be!

Date:

Astronomy

Feb. 08, 2012 Rise Set
Actual Time 7:11 AM CST 5:18 PM CST
Civil Twilight 6:41 AM CST 5:49 PM CST
Nautical Twilight 6:06 AM CST 6:23 PM CST
Astronomical Twilight 5:32 AM CST 6:57 PM CST
Moon 6:44 PM CST (2/8) 7:10 AM CST (2/8)
Length of Visible Light 11h 08m
Length of Day
10h 07m
Full, 99% of the Moon is Illuminated
Feb 8
Full
Feb 14
Last Quarter
Feb 21
New
Feb 29
First Quarter
Mar 8
Full

Hourly Weather History & Observations

Time (CST) Temp. Windchill Dew Point Humidity Pressure Visibility Wind Dir Wind Speed Gust Speed Precip Events Conditions
12:54 AM 15.1 °F 5.2 °F 7.0 °F 70% 30.47 in 10.0 mi NNW 6.9 mph - N/A   Clear
1:54 AM 10.9 °F 1.4 °F 5.0 °F 77% 30.47 in 10.0 mi NNW 5.8 mph - N/A   Clear
2:54 AM 10.9 °F 2.9 °F 6.1 °F 81% 30.45 in 10.0 mi NW 4.6 mph - N/A   Clear
3:54 AM 10.9 °F - 3.0 °F 70% 30.43 in 10.0 mi Calm Calm - N/A   Clear
4:54 AM 8.1 °F 1.4 °F 1.9 °F 76% 30.43 in 10.0 mi West 3.5 mph - N/A   Clear
5:54 AM 10.0 °F 1.8 °F 3.0 °F 73% 30.42 in 10.0 mi West 4.6 mph - N/A   Clear
6:54 AM 9.0 °F 2.4 °F 3.0 °F 77% 30.43 in 10.0 mi West 3.5 mph - N/A   Clear
7:54 AM 10.0 °F 1.8 °F 1.9 °F 70% 30.43 in 10.0 mi West 4.6 mph - N/A   Clear
8:54 AM 14.0 °F 5.1 °F 3.0 °F 62% 30.43 in 10.0 mi West 5.8 mph - N/A   Clear
9:54 AM 19.0 °F 9.0 °F 1.9 °F 47% 30.41 in 10.0 mi West 8.1 mph - N/A   Clear
10:54 AM 21.9 °F 10.4 °F 1.9 °F 42% 30.41 in 10.0 mi West 11.5 mph - N/A   Clear
11:54 AM 24.1 °F 13.7 °F 1.0 °F 37% 30.39 in 10.0 mi West 10.4 mph - N/A   Clear
12:54 PM 26.1 °F 15.6 °F 1.0 °F 34% 30.37 in 10.0 mi West 11.5 mph - N/A   Clear
1:54 PM 28.0 °F 17.5 °F 1.0 °F 31% 30.34 in 10.0 mi West 12.7 mph - N/A   Clear
2:54 PM 28.9 °F 19.8 °F 3.0 °F 33% 30.32 in 10.0 mi West 10.4 mph - N/A   Clear
3:54 PM 28.9 °F 19.2 °F 5.0 °F 36% 30.31 in 10.0 mi West 11.5 mph - N/A   Clear
4:54 PM 27.0 °F 18.7 °F 6.1 °F 41% 30.31 in 10.0 mi West 8.1 mph - N/A   Clear
5:54 PM 24.1 °F 16.0 °F 6.1 °F 46% 30.30 in 10.0 mi West 6.9 mph - N/A   Clear
6:54 PM 23.0 °F 14.7 °F 5.0 °F 46% 30.29 in 10.0 mi West 6.9 mph - N/A   Clear
7:54 PM 21.9 °F 13.4 °F 5.0 °F 48% 30.29 in 10.0 mi West 6.9 mph - N/A   Clear
8:54 PM 21.0 °F 12.4 °F 3.9 °F 48% 30.28 in 10.0 mi West 6.9 mph - N/A   Clear
9:54 PM 21.0 °F 11.4 °F 5.0 °F 50% 30.27 in 10.0 mi West 8.1 mph - N/A   Clear
10:54 PM 19.0 °F 10.0 °F 5.0 °F 54% 30.25 in 10.0 mi West 6.9 mph - N/A   Clear
11:54 PM 18.0 °F 8.7 °F 5.0 °F 57% 30.25 in 10.0 mi West 6.9 mph - N/A   Clear